Погода в Осоюсе

Канада     49°01′58″N   119°27′58″W
темп.,
°C
ветер,
м/с
пор.,
м/с
влажн.,
%
обл.,
%
осадки,
мм/ч
давл.,
гПа
погр.,
м
20 июня, вс
вс2023:00+15с6115723 0.0 1015712
02:00+12с37680 0.0 1017214
05:00+9с35770 0.0 1020109
08:00+16с45510 0.0 1019799
11:00+22ссз33360 0.0 10181393
14:00+27з22270 0.0 10162088
17:00+28юз112432 0.0 10132111
20:00+23з1139100 0.0 101311
21 июня, пн
пн2123:00+17с225192 0.0 101416
02:00+15с2256100 0.0 101519
05:00+14с1161100 0.0 101413
08:00+21ссв014367 0.0 1013361
11:00+27ю222899 0.0 10101224
14:00+30ю22230 0.0 10072138
17:00+31ююв33223 0.0 10052258
20:00+27ююв22320 0.0 100328
22 июня, вт
вт2223:00+19ссз22470 0.0 100530
02:00+17с22530 0.0 100630
05:00+16с22590 0.0 100616
08:00+23с12441 0.0 1005410
11:00+29ю11270 0.0 10031464
14:00+33ю34200 0.0 10012507
17:00+33ююв341718 0.0 9992886
20:00+28ссв2228100 0.0 99948
23 июня, ср
ср2323:00+19с3343100 0.0 100246
02:00+17с345399 0.0 100363
05:00+15с226626 0.0 100540
08:00+22ссз23480 0.0 1005530
11:00+28ю22298 0.0 10051601
14:00+31ю342284 0.0 10033088
17:00+29ссв442892 0.0 10041569
20:00+25с48355 0.0 1007935
24 июня, чт
чт2423:00+18с235596 0.0 101146
02:00+17ссз3460100 0.0 101362
05:00+16ссз346384 0.0 101482
08:00+22с3443100 0.0 1014486
11:00+28с252747 0.0 10132365
14:00+32с352198 0.0 10113320
17:00+32с5622100 0.0 10103100
20:00+28ссз123348 0.0 101116